• In Uzbekistan
  • List of Countries
  • For 7 days
  • Water Temperature
  • Satellite Maps
  • Weather Map
  • Weather Widgets
  • user-avatar
    Login

    Hourly Weather Nakhchivan

    Today, 27 June, Tuesday

    Time Temperature Precipitation Wind Pressure Humidity
    00:00 +25°C° 0 mm 2 mps 689 mmHg 60%
    01:00 +24°C° 0 mm 2 mps 689 mmHg 61%
    02:00 +23°C° 0 mm 1 mps 689 mmHg 63%
    03:00 +23°C° 0 mm 1 mps 688 mmHg 65%
    04:00 +24°C° 0 mm 1 mps 688 mmHg 61%
    05:00 +24°C° 0 mm 1 mps 688 mmHg 58%
    06:00 +25°C° 0 mm 1 mps 689 mmHg 55%
    07:00 +27°C° 0 mm 1 mps 689 mmHg 48%
    08:00 +29°C° 0 mm 1 mps 689 mmHg 41%
    09:00 +31°C° 0 mm 1 mps 689 mmHg 34%
    10:00 +33°C° 0 mm 1 mps 689 mmHg 30%
    11:00 +36°C° 0 mm 2 mps 688 mmHg 27%
    12:00 +37°C° 0 mm 2 mps 688 mmHg 23%
    13:00 +38°C° 0 mm 2 mps 688 mmHg 22%
    14:00 +39°C° 0 mm 2 mps 687 mmHg 20%
    15:00 +40°C° 0 mm 2 mps 687 mmHg 19%
    16:00 +39°C° 0 mm 3 mps 687 mmHg 20%
    17:00 +39°C° 0 mm 3 mps 687 mmHg 21%
    18:00 +38°C° 0 mm 3 mps 686 mmHg 22%
    19:00 +36°C° 0 mm 3 mps 686 mmHg 28%
    20:00 +32°C° 0 mm 2 mps 686 mmHg 34%
    21:00 +30°C° 0 mm 2 mps 686 mmHg 40%
    22:00 +29°C° 0 mm 2 mps 686 mmHg 42%
    23:00 +28°C° 0 mm 2 mps 686 mmHg 44%

    Tomorrow, 28 June, Wednesday

    Time Temperature Precipitation Wind Pressure Humidity
    00:00 +28°C° 0 mm 2 mps 686 mmHg 47%
    01:00 +27°C° 0 mm 1 mps 686 mmHg 47%
    02:00 +27°C° 0 mm 1 mps 686 mmHg 48%
    03:00 +26°C° 0 mm 1 mps 685 mmHg 49%
    04:00 +27°C° 0 mm 1 mps 686 mmHg 48%
    05:00 +27°C° 0 mm 1 mps 686 mmHg 46%
    06:00 +28°C° 0 mm 1 mps 686 mmHg 44%
    07:00 +30°C° 0 mm 1 mps 686 mmHg 39%
    08:00 +32°C° 0 mm 1 mps 687 mmHg 33%
    09:00 +34°C° 0 mm 1 mps 687 mmHg 28%
    10:00 +36°C° 0 mm 1 mps 686 mmHg 25%
    11:00 +37°C° 0 mm 1 mps 686 mmHg 22%
    12:00 +39°C° 0 mm 1 mps 686 mmHg 20%
    13:00 +40°C° 0 mm 2 mps 686 mmHg 19%
    14:00 +41°C° 0 mm 2 mps 685 mmHg 17%
    15:00 +41°C° 0 mm 2 mps 685 mmHg 16%
    16:00 +42°C° 0 mm 3 mps 684 mmHg 18%
    17:00 +40°C° 0 mm 3 mps 684 mmHg 19%
    18:00 +40°C° 0 mm 4 mps 684 mmHg 21%
    19:00 +37°C° 0 mm 3 mps 684 mmHg 27%
    20:00 +34°C° 0 mm 3 mps 684 mmHg 33%
    21:00 +31°C° 0 mm 2 mps 684 mmHg 39%
    22:00 +30°C° 0 mm 2 mps 684 mmHg 42%
    23:00 +29°C° 0 mm 2 mps 684 mmHg 45%

    Day after tomorrow, 29 June, Thursday

    Time Temperature Precipitation Wind Pressure Humidity
    00:00 +28°C° 0 mm 2 mps 684 mmHg 48%
    01:00 +27°C° 0 mm 2 mps 684 mmHg 50%
    02:00 +27°C° 0 mm 2 mps 684 mmHg 52%
    03:00 +26°C° 0 mm 2 mps 684 mmHg 54%
    04:00 +27°C° 0 mm 2 mps 684 mmHg 53%
    05:00 +27°C° 0 mm 2 mps 685 mmHg 52%
    06:00 +27°C° 0 mm 1 mps 685 mmHg 51%
    07:00 +29°C° 0 mm 1 mps 685 mmHg 44%
    08:00 +31°C° 0 mm 1 mps 685 mmHg 38%
    09:00 +33°C° 0 mm 1 mps 686 mmHg 32%
    10:00 +35°C° 0 mm 2 mps 685 mmHg 28%
    11:00 +37°C° 0 mm 2 mps 685 mmHg 25%
    12:00 +38°C° 0 mm 2 mps 685 mmHg 22%
    13:00 +39°C° 0 mm 2 mps 685 mmHg 20%
    14:00 +39°C° 0 mm 3 mps 684 mmHg 19%
    15:00 +40°C° 0 mm 3 mps 684 mmHg 17%
    16:00 +39°C° 0 mm 3 mps 684 mmHg 19%
    17:00 +38°C° 0 mm 4 mps 684 mmHg 21%
    18:00 +37°C° 0 mm 4 mps 683 mmHg 22%
    19:00 +35°C° 0 mm 4 mps 684 mmHg 27%
    20:00 +33°C° 0 mm 3 mps 684 mmHg 32%
    21:00 +29°C° 0 mm 2 mps 684 mmHg 36%
    22:00 +28°C° 0.1 mm 2 mps 684 mmHg 38%
    23:00 +28°C° 0.1 mm 2 mps 684 mmHg 39%

    30 June, Friday

    Time Temperature Precipitation Wind Pressure Humidity
    00:00 +27°C° 0.1 mm 2 mps 684 mmHg 41%
    01:00 +26°C° 0.1 mm 2 mps 684 mmHg 42%
    02:00 +25°C° 0.1 mm 2 mps 684 mmHg 43%
    03:00 +25°C° 0.1 mm 1 mps 684 mmHg 44%
    04:00 +25°C° 0.1 mm 2 mps 685 mmHg 43%
    05:00 +25°C° 0.1 mm 2 mps 685 mmHg 41%
    06:00 +26°C° 0.1 mm 2 mps 685 mmHg 40%
    07:00 +28°C° 0 mm 2 mps 685 mmHg 36%
    08:00 +30°C° 0 mm 2 mps 686 mmHg 31%
    09:00 +32°C° 0 mm 2 mps 686 mmHg 27%
    10:00 +34°C° 0 mm 2 mps 686 mmHg 25%
    11:00 +35°C° 0 mm 2 mps 685 mmHg 22%
    12:00 +36°C° 0 mm 2 mps 685 mmHg 19%
    13:00 +37°C° 0 mm 3 mps 685 mmHg 18%
    14:00 +37°C° 0 mm 3 mps 685 mmHg 17%
    15:00 +38°C° 0 mm 4 mps 684 mmHg 16%
    16:00 +37°C° 0 mm 4 mps 684 mmHg 16%
    17:00 +36°C° 0 mm 4 mps 685 mmHg 17%
    18:00 +36°C° 0 mm 5 mps 685 mmHg 18%
    19:00 +33°C° 0 mm 4 mps 685 mmHg 21%
    20:00 +30°C° 0 mm 3 mps 685 mmHg 24%
    21:00 +28°C° 0 mm 3 mps 686 mmHg 27%
    22:00 +27°C° 0 mm 3 mps 686 mmHg 29%
    23:00 +26°C° 0 mm 2 mps 686 mmHg 30%

    1 July, Saturday

    Time Temperature Precipitation Wind Pressure Humidity
    00:00 +25°C° 0 mm 2 mps 686 mmHg 32%
    01:00 +25°C° 0 mm 2 mps 686 mmHg 33%
    02:00 +24°C° 0 mm 2 mps 686 mmHg 35%
    03:00 +23°C° 0 mm 2 mps 686 mmHg 36%
    04:00 +24°C° 0 mm 2 mps 686 mmHg 36%
    05:00 +24°C° 0 mm 2 mps 687 mmHg 35%
    06:00 +24°C° 0 mm 2 mps 687 mmHg 34%
    07:00 +26°C° 0 mm 2 mps 688 mmHg 30%
    08:00 +28°C° 0 mm 2 mps 688 mmHg 25%
    09:00 +30°C° 0 mm 2 mps 688 mmHg 21%
    10:00 +33°C° 0 mm 3 mps 688 mmHg 19%
    11:00 +34°C° 0 mm 3 mps 688 mmHg 17%
    12:00 +36°C° 0 mm 3 mps 688 mmHg 15%
    13:00 +36°C° 0 mm 4 mps 687 mmHg 14%
    14:00 +37°C° 0 mm 4 mps 687 mmHg 14%
    15:00 +37°C° 0 mm 5 mps 687 mmHg 14%
    16:00 +37°C° 0 mm 5 mps 687 mmHg 15%
    17:00 +36°C° 0 mm 5 mps 687 mmHg 17%
    18:00 +35°C° 0 mm 6 mps 687 mmHg 19%
    19:00 +33°C° 0 mm 5 mps 687 mmHg 23%
    20:00 +29°C° 0 mm 3 mps 688 mmHg 27%
    21:00 +27°C° 0 mm 2 mps 688 mmHg 30%
    22:00 +26°C° 0 mm 2 mps 688 mmHg 32%
    23:00 +26°C° 0 mm 2 mps 688 mmHg 34%

    2 July, Sunday

    Time Temperature Precipitation Wind Pressure Humidity
    00:00 +25°C° 0 mm 2 mps 688 mmHg 36%
    01:00 +24°C° 0 mm 2 mps 688 mmHg 37%
    02:00 +24°C° 0 mm 2 mps 687 mmHg 38%
    03:00 +23°C° 0 mm 2 mps 687 mmHg 39%
    04:00 +24°C° 0 mm 2 mps 687 mmHg 37%
    05:00 +24°C° 0 mm 1 mps 687 mmHg 36%
    06:00 +25°C° 0 mm 1 mps 688 mmHg 35%
    07:00 +27°C° 0 mm 1 mps 688 mmHg 31%
    08:00 +29°C° 0 mm 1 mps 688 mmHg 26%
    09:00 +31°C° 0 mm 1 mps 688 mmHg 22%
    10:00 +34°C° 0 mm 2 mps 688 mmHg 20%
    11:00 +35°C° 0 mm 2 mps 687 mmHg 18%
    12:00 +37°C° 0 mm 3 mps 687 mmHg 16%
    13:00 +37°C° 0 mm 3 mps 687 mmHg 16%
    14:00 +38°C° 0 mm 4 mps 686 mmHg 16%
    15:00 +40°C° 0 mm 4 mps 686 mmHg 15%
    16:00 +38°C° 0.1 mm 4 mps 686 mmHg 17%
    17:00 +37°C° 0.1 mm 5 mps 686 mmHg 19%
    18:00 +36°C° 0.1 mm 5 mps 686 mmHg 21%
    19:00 +34°C° 0.2 mm 4 mps 686 mmHg 26%
    20:00 +30°C° 0.2 mm 3 mps 686 mmHg 31%
    21:00 +28°C° 0.2 mm 2 mps 686 mmHg 37%
    22:00 +27°C° 0 mm 2 mps 686 mmHg 38%
    23:00 +27°C° 0 mm 2 mps 686 mmHg 39%
    Show more